Location: Krasnoyarskiy Pitomnik
(51.1333°N, 71.6167°E)
Time: 10:29:30
(UTC+00:00)

SJ-11-01 - Pass Details

Date: 22 October 2021
Orbit: 684 x 700 km, 97.9° (Epoch: 07 December)

Event Time Altitude Azimuth Distance (km) Brightness Sun altitude
Rises 13:32:46 0° 168° (SSE) 3,047 7.5 -14.2°
Reaches altitude 10° 13:35:00 10° 170° (S) 2,138 6.7 -14.5°
Maximum altitude 13:39:41 77° 256° (WSW) 716 4.4 -15.3°
Drops below altitude 10° 13:44:26 10° 343° (NNW) 2,165 7.1 -16.0°
Sets 13:46:43 0° 345° (NNW) 3,089 7.9 -16.4°
